Voltar ao catálogo

STARLINK-37763

AtivoComunicaçõesSSO
NORAD 69217·PAYLOAD·🇺🇸 United States

Lançado May 26, 2026 de Vandenberg Space Force Base

Loading…

Próximas Passagens (próximas 24 horas)

TLE

AtualizadoSource: CelesTrak SupGP

Época: Sep 14, 2026, 22:53 UTC

1 69217C 26115G   26257.95395833  .00023433  00000+0  72731-3 0  2571
2 69217  97.2834 274.0945 0001674  89.8953  80.1236 15.33431868    14

Acompanhe STARLINK-37763 em tempo real com AllMySat

Download on the App Store